TIANMU-1 10

Last updated on Thu Nov 21 2024 00:02:20 GMT+0000 (Coordinated Universal Time)

1 57402U 23101D 24325.55966525 .00011139 00000+0 50733-3 0 9999 2 57402 97.3447 18.5383 0008846 12.7234 347.4223 15.20809672 74159
UTC large
Height (km)
Speed (km/s)
/
Latitude / Longitude
Inclination (degrees)
Orbital Period (minutes)
Azimuth
Elevation
Range (km)
Doppler Factor

Next 0 passes for location: London (51.5072 / 0.1276)

Sorry there are no passes over London.